Погода в Роскилле

Дания     55°38′29″N   12°04′50″E
темп.,
°C
ветер,
м/с
пор.,
м/с
влажн.,
%
обл.,
%
осадки,
мм/ч
давл.,
гПа
погр.,
м
18 мая, вт
вт1823:00+8юз22917 0.1 100439
02:00+8юз229248 0.1 100532
05:00+9зюз229178 0.0 100656
08:00+10зсз2388100 0.1 1007278
11:00+13з337028 0.2 1008914
14:00+14зсз456036 0.4 10081337
17:00+14зсз456766 0.2 1009907
20:00+11сз36825 0.4 1010320
19 мая, ср
ср1923:00+9сз47875 0.0 1011180
02:00+8сз47885 0.0 1011218
05:00+6зсз36865 0.0 1012195
08:00+10з46741 0.0 1012577
11:00+12з566311 0.0 10121268
14:00+13зсз565715 0.1 10121379
17:00+14зсз465812 0.1 10121338
20:00+11зюз37815 0.6 1012241
20 мая, чт
чт2023:00+8зюз36915 0.0 1012133
02:00+7з489210 0.1 1013289
05:00+6з499210 0.0 1013378
08:00+8з6978100 0.0 1014958
11:00+10з71069100 0.2 10141218
14:00+12з811618 0.5 10141636
17:00+13з8105618 0.1 10141952
20:00+10з710685 0.2 10141204
21 мая, пт
пт2123:00+7юз41084100 0.0 1014420
02:00+6ююз3990100 0.0 1013257
05:00+7ююз41095100 0.0 1010314
08:00+10ю5108458 0.1 1008645
11:00+11ю71278100 0.1 10071309
14:00+12ююз7985100 0.4 1005929
17:00+12ююз7108896 0.6 1003869
20:00+11ю5994100 1.6 1002505
22 мая, сб
сб2223:00+10ю5895100 2.1 1001225
02:00+8ююв489166 2.4 1000194
05:00+8ююв61295100 0.3 1000329
08:00+11ю5119165 0.5 1000608
11:00+13ююз811766 0.9 9991196
14:00+12ююз61085100 2.7 9991235
17:00+10ююз71189100 1.1 999968
20:00+9ююз6129351 1.7 1000735